TimeEDT,TemperatureF,Dew PointF,Humidity,Sea Level PressureIn,VisibilityMPH,Wind Direction,Wind SpeedMPH,Gust SpeedMPH,PrecipitationIn,Events,Conditions,WindDirDegrees,DateUTC
12:56 AM,77.0,75.0,94,30.00,10.0,South,5.8,-,N/A,,Overcast,190,2012-10-03 04:56:00
1:56 AM,75.9,73.9,94,30.00,10.0,South,6.9,-,N/A,,Mostly Cloudy,190,2012-10-03 05:56:00
2:56 AM,75.9,73.9,94,30.00,10.0,South,4.6,-,N/A,,Mostly Cloudy,180,2012-10-03 06:56:00
3:56 AM,77.0,75.0,94,30.01,10.0,South,6.9,-,N/A,,Mostly Cloudy,180,2012-10-03 07:56:00
4:56 AM,77.0,75.0,94,30.01,10.0,SSW,5.8,-,N/A,,Overcast,210,2012-10-03 08:56:00
5:56 AM,77.0,72.0,84,30.04,10.0,WSW,5.8,-,N/A,,Overcast,250,2012-10-03 09:56:00
6:56 AM,75.0,71.1,87,30.06,10.0,WSW,4.6,-,0.00,Rain,Light Rain,240,2012-10-03 10:56:00
7:56 AM,73.9,71.1,91,30.07,10.0,SSW,3.5,-,0.00,,Mostly Cloudy,200,2012-10-03 11:56:00
8:56 AM,75.9,70.0,82,30.09,10.0,SW,4.6,-,N/A,,Mostly Cloudy,230,2012-10-03 12:56:00
9:56 AM,78.1,68.0,71,30.11,10.0,SW,4.6,-,N/A,,Mostly Cloudy,230,2012-10-03 13:56:00
10:56 AM,79.0,66.9,66,30.12,10.0,WSW,5.8,-,N/A,,Mostly Cloudy,240,2012-10-03 14:56:00
11:56 AM,80.1,66.9,64,30.13,10.0,WSW,6.9,-,N/A,,Mostly Cloudy,240,2012-10-03 15:56:00
12:56 PM,82.0,66.9,60,30.12,10.0,SSW,8.1,-,N/A,,Mostly Cloudy,210,2012-10-03 16:56:00
1:56 PM,82.0,66.9,60,30.12,10.0,West,6.9,-,0.00,Rain,Light Rain,270,2012-10-03 17:56:00
2:56 PM,79.0,66.9,66,30.11,10.0,SW,8.1,-,0.00,,Mostly Cloudy,230,2012-10-03 18:56:00
3:56 PM,81.0,66.9,62,30.11,10.0,WSW,5.8,-,N/A,,Mostly Cloudy,250,2012-10-03 19:56:00
4:56 PM,78.1,66.9,68,30.11,10.0,SW,4.6,-,N/A,,Mostly Cloudy,220,2012-10-03 20:56:00
5:56 PM,80.1,68.0,67,30.12,10.0,Calm,Calm,-,N/A,,Mostly Cloudy,0,2012-10-03 21:56:00
6:56 PM,78.1,69.1,74,30.14,10.0,Calm,Calm,-,N/A,,Overcast,0,2012-10-03 22:56:00
7:56 PM,75.0,71.1,87,30.15,10.0,South,5.8,-,N/A,,Mostly Cloudy,190,2012-10-03 23:56:00
8:56 PM,75.0,71.1,87,30.17,10.0,SSW,6.9,-,N/A,,Mostly Cloudy,200,2012-10-04 00:56:00
9:56 PM,73.0,66.0,79,30.19,10.0,SSE,4.6,-,N/A,,Overcast,160,2012-10-04 01:56:00
10:56 PM,72.0,68.0,87,30.21,10.0,South,3.5,-,N/A,,Overcast,180,2012-10-04 02:56:00
11:56 PM,73.9,68.0,82,30.20,10.0,Calm,Calm,-,0.01,,Overcast,0,2012-10-04 03:56:00